Find Starlink 36499

NORAD ID: 67359 Int'l Des: 2026-003 Owner: SPXS Country: US Constellation: starlink operational
LEOCIRCULAR

Live Position

Loading 3D Globe...

About Starlink 36499

Description loading...

Upcoming Passes

Passes for default location (London). Set your location on the main map for personalized predictions.

Altitude History

Loading altitude history...

Two-Line Element Set

1 67359U 26003AB 26107.03629258 .00007578 00000-0 28477-3 0 9990
2 67359 43.0032 10.9259 0000509 336.6964 23.3865 15.27561817 14680
Epoch: Apr 17, 2026 • Age: 13 hours

Current Status

Altitude 485.7 km
Velocity 7.63 km/s
Sub-Earth Point 39.63°N, 71.48°E
Launch Date Jan 9, 2026
Age 0.2 years
Type internet

Technical Details

Classification Payload
Mass 575.00 kg
Dry Mass 530.00 kg
Total Mass 575.00 kg
Length 0.30 m
Diameter 4.10 m
Span 29.00 m
Shape Box + pan
Manufacturer SPXS
Bus Type Starlink V2MO
Phase Status In Orbit
Owner/State SPXS/US

Most Searched